Theta_e
320 324 328 327 330 335 336 336 338 341 343 343 348 346 348 350 360 372 355 347 344 348 337 339 343 342 340 340 330 326 331 335 336 336 336 335 333 337 340 341 341 340 340 340 339 338 337 335 329
324 328 323 325 332 336 338 337 346 348 344 343 345 349 350 355 356 357 355 345 341 348 346 341 342 342 341 342 331 326 332 335 336 335 334 331 332 335 343 348 344 342 342 342 340 340 338 335 331
319 324 325 331 334 336 338 337 337 348 343 344 350 346 352 353 354 356 349 344 343 345 351 341 342 343 342 343 330 327 332 335 335 335 332 330 329 333 341 348 348 348 344 343 341 341 340 338 333
321 323 324 328 333 334 336 334 332 335 340 341 345 354 351 349 354 355 348 343 343 342 352 339 341 343 343 343 331 328 333 335 335 334 331 329 327 334 341 343 348 348 348 343 341 341 341 340 337
321 325 325 325 328 332 337 332 331 331 339 343 343 352 357 353 356 353 348 344 341 342 352 338 338 342 343 343 334 331 334 334 334 334 329 328 328 335 340 344 349 349 349 347 345 341 340 340 340
322 324 325 326 328 329 332 332 331 331 331 343 344 350 355 353 355 350 347 344 341 352 351 338 337 339 341 342 337 336 336 334 333 333 329 327 329 335 338 340 344 347 348 346 348 344 340 340 340
322 324 325 325 326 327 329 331 331 332 332 332 343 354 354 354 352 348 346 343 342 349 348 347 339 336 339 340 339 339 336 334 334 332 328 328 331 334 336 339 342 347 349 348 346 343 341 340 339
322 324 325 326 326 325 328 328 328 331 335 335 343 354 352 354 353 352 349 346 344 345 344 345 346 340 337 338 339 338 333 333 334 331 329 328 331 334 336 337 337 340 345 347 347 345 342 340 339
323 324 325 325 325 326 328 327 328 329 334 334 342 339 335 346 354 353 352 348 345 344 342 340 341 341 340 342 334 332 332 334 334 331 330 329 331 330 338 335 341 334 335 340 344 345 344 342 342
322 324 324 325 326 326 327 327 327 329 328 333 339 347 341 352 352 352 352 350 347 345 343 340 339 339 338 339 339 334 338 333 333 334 332 330 338 340 343 340 340 338 332 334 336 341 344 344 345
323 322 324 325 326 326 326 326 327 327 327 331 337 349 349 352 352 352 350 349 348 345 343 341 339 339 338 339 341 339 343 340 339 339 340 332 339 343 341 341 339 335 327 330 335 335 339 345 346
323 323 324 324 325 325 325 325 324 327 328 335 343 346 347 349 351 351 348 349 348 345 342 341 342 340 339 342 341 338 342 341 342 341 341 340 340 345 343 345 343 340 338 336 339 343 345 345 345
323 323 324 324 324 324 324 324 324 326 327 331 340 347 347 345 349 347 346 346 347 345 343 342 343 341 340 344 342 340 340 342 343 343 344 346 344 348 345 343 344 342 341 341 338 339 339 343 341
324 324 324 323 323 323 323 323 324 325 326 328 337 335 342 344 346 348 349 344 346 344 344 343 345 346 344 345 348 344 342 343 343 346 347 347 349 348 346 345 345 343 341 341 340 339 337 338 340
325 324 324 324 324 324 323 323 323 325 326 326 332 331 331 342 342 347 345 344 346 345 345 343 347 349 347 348 349 350 344 344 345 344 348 349 348 349 347 347 345 344 342 341 340 341 343 343 342
326 326 325 325 325 324 323 322 324 325 326 326 328 329 329 341 342 345 345 346 350 348 347 346 346 352 352 353 350 349 349 349 345 346 346 348 350 348 350 347 347 345 343 342 341 343 343 344 346
325 326 325 326 326 326 325 323 324 326 326 326 327 326 327 328 342 344 347 351 351 352 350 348 348 350 352 351 353 350 349 347 348 346 346 349 349 350 348 349 347 345 344 343 343 343 344 346 340
326 325 326 326 326 325 325 324 324 325 325 327 326 326 327 327 339 339 340 340 345 355 353 351 352 350 351 352 351 351 348 349 348 348 349 350 349 350 350 350 350 348 345 345 343 342 344 343 344
326 326 326 327 327 326 326 325 325 326 326 326 327 327 329 332 335 337 338 337 337 344 356 359 356 356 356 355 354 353 352 350 349 348 348 349 350 352 351 351 349 348 348 347 344 341 345 342 344
326 326 327 326 326 325 326 326 326 327 327 327 327 327 328 334 336 337 338 339 338 338 342 351 356 358 359 358 357 357 354 353 352 350 348 347 351 351 351 352 351 348 349 348 348 341 348 348 346
326 326 327 326 326 326 326 326 326 327 329 329 330 331 331 332 337 338 338 340 341 341 340 340 339 343 354 359 358 357 355 356 352 351 349 348 349 350 352 352 351 351 349 350 347 346 348 345 342
327 325 326 326 326 326 327 329 330 329 330 331 331 333 333 335 336 336 336 337 339 341 343 344 343 339 339 346 357 358 358 355 354 351 349 349 349 350 351 352 353 349 352 349 344 345 346 346 347
327 326 326 326 327 327 327 328 328 329 333 332 332 332 333 333 334 334 333 332 332 335 338 343 344 347 345 339 337 344 355 352 354 351 348 347 350 351 352 353 352 352 351 348 342 344 346 346 343
326 325 326 326 326 330 328 328 329 329 332 334 332 332 332 332 332 332 331 330 330 331 333 334 336 339 342 345 346 343 343 350 353 353 354 352 356 354 353 353 353 355 352 346 347 342 344 343 345
326 328 328 329 330 330 328 328 330 334 330 332 333 331 330 330 330 330 330 330 331 330 330 331 332 332 333 337 340 344 346 346 348 349 349 351 354 356 356 354 354 354 352 350 345 344 346 344 343
328 331 333 338 336 330 329 329 333 333 333 331 332 330 329 329 329 328 328 328 328 330 330 330 331 331 330 332 333 335 337 343 345 346 346 346 350 352 348 338 342 345 350 352 346 345 345 346 347
330 331 330 333 334 336 332 331 331 331 331 332 330 330 329 328 326 326 325 324 325 326 327 328 327 328 329 329 330 331 333 334 335 337 341 344 345 347 346 337 329 326 337 347 347 346 346 348 346
328 328 331 331 340 341 335 334 336 337 333 330 328 328 326 325 324 323 323 321 321 320 321 322 322 323 325 326 327 329 329 330 331 333 334 335 336 339 341 343 342 333 327 340 346 347 348 348 345
326 328 330 330 330 340 338 338 331 331 333 329 327 326 325 324 323 322 322 321 320 319 319 319 319 320 320 321 321 323 325 328 330 332 331 331 332 334 335 338 340 336 327 336 344 346 349 345 346
323 326 329 334 332 332 332 334 328 326 327 328 326 326 321 321 320 320 320 319 318 318 318 318 317 317 318 318 319 320 320 322 324 325 325 326 329 331 332 333 334 336 339 336 333 343 346 347 343
Wind_Speed
12 13 11 15 5 8 16 17 4 10 17 12 16 12 12 15 12 5 17 17 26 25 25 19 20 24 23 18 17 19 18 16 16 14 13 13 14 15 16 16 15 15 15 15 15 15 15 16 18
10 17 13 6 8 12 10 23 17 21 8 14 11 7 12 13 15 14 15 24 26 23 25 20 21 25 23 19 17 19 19 17 15 14 13 13 13 15 15 15 14 13 13 13 13 13 13 15 18
11 13 7 5 12 13 6 24 12 33 8 4 9 12 5 4 8 13 21 27 27 22 21 22 21 24 22 19 18 19 18 16 15 14 13 13 13 14 14 14 12 11 11 11 11 11 11 12 14
9 8 6 9 16 14 15 6 9 1 9 5 8 11 7 4 4 15 23 27 23 23 20 24 21 22 21 20 18 18 17 16 14 13 12 13 13 14 14 13 11 10 9 9 8 8 8 8 9
14 7 11 16 19 18 17 4 4 8 9 14 6 9 8 6 10 18 25 24 25 25 21 25 22 22 21 20 19 18 17 15 14 13 12 12 13 13 13 11 11 8 8 6 6 5 4 5 5
7 7 12 13 18 14 4 4 5 7 9 12 9 12 9 15 18 20 22 20 23 27 22 25 22 21 21 20 19 18 17 15 14 13 12 12 12 12 11 10 9 8 7 5 5 4 3 2 2
13 11 16 18 20 21 4 9 6 10 8 9 8 15 10 15 20 20 19 20 25 25 22 21 23 20 19 20 19 18 16 14 14 13 12 11 11 11 10 10 9 9 10 6 6 6 5 4 2
11 12 19 18 17 18 9 6 7 7 11 3 5 11 3 12 18 20 19 18 22 24 21 19 19 20 20 20 20 18 16 15 14 13 12 11 11 10 10 9 9 9 10 10 7 7 8 7 6
17 11 14 19 20 15 9 4 9 3 10 5 8 18 21 25 19 19 22 21 21 23 24 21 19 19 19 18 21 18 17 16 14 13 12 12 9 9 8 7 8 6 9 10 10 9 9 10 8
13 12 18 22 18 18 4 6 10 3 8 13 9 31 37 27 21 19 17 18 21 23 23 25 23 23 23 19 18 18 18 18 16 14 14 12 13 7 11 11 10 8 8 8 10 11 10 11 9
15 16 21 20 13 13 15 7 7 10 12 14 15 22 20 22 19 20 23 24 22 20 23 25 27 25 25 24 20 20 17 16 15 14 15 14 12 17 10 13 13 11 11 9 9 11 14 11 12
17 19 18 22 13 11 12 12 14 10 15 7 21 17 18 14 15 18 19 22 35 24 22 26 24 27 24 22 23 20 22 18 19 19 19 13 16 15 14 15 12 9 10 10 18 15 12 12 17
15 18 17 16 12 16 12 16 17 12 19 11 21 24 21 10 13 14 11 23 24 26 24 24 24 25 23 16 20 21 23 22 23 21 22 16 16 13 14 15 16 16 20 12 16 16 12 11 10
14 12 16 20 13 16 16 18 15 15 21 13 3 6 11 13 11 11 8 16 20 24 23 19 25 21 21 16 14 18 18 20 20 21 23 20 19 17 15 14 10 11 8 9 10 12 13 13 11
15 17 15 17 15 17 15 20 19 18 14 19 7 5 11 11 14 12 9 4 15 23 24 20 22 24 23 20 15 10 17 17 14 16 19 22 20 17 18 14 16 14 12 11 10 12 8 11 14
12 15 17 17 21 18 16 20 18 17 12 20 11 10 10 10 11 15 15 13 8 21 25 23 20 24 23 19 18 16 14 13 18 20 18 21 19 22 15 19 16 15 13 11 13 14 15 17 13
14 14 19 20 20 19 19 20 18 15 16 16 11 10 10 9 9 18 12 11 14 11 20 19 16 20 23 22 18 20 18 20 15 18 19 22 22 19 21 20 18 17 14 13 14 15 16 16 12
16 17 15 17 16 11 14 17 16 18 19 18 15 10 11 9 15 15 13 15 7 15 15 17 15 15 22 20 21 16 20 18 20 22 22 22 25 26 23 23 19 17 17 15 17 17 16 13 11
17 20 18 20 16 12 14 15 19 15 19 11 7 9 12 6 12 15 12 12 11 6 7 15 19 18 15 20 21 20 19 21 21 22 22 21 24 23 24 23 20 18 17 19 18 21 18 16 14
19 17 17 18 22 19 17 14 18 18 11 9 12 7 6 11 11 11 10 11 10 6 2 3 7 12 20 20 20 20 22 22 23 23 24 25 25 24 25 26 22 24 22 22 20 19 14 13 14
18 16 17 21 22 20 18 20 17 23 10 9 3 7 7 5 12 8 9 10 12 11 7 2 5 8 9 18 19 21 21 16 19 25 25 27 28 26 25 25 27 20 25 20 23 20 16 16 18
18 20 18 21 19 15 18 15 18 20 15 13 12 9 9 12 13 11 10 13 13 17 13 10 5 4 7 10 14 19 16 18 19 20 22 27 31 29 29 29 27 30 23 25 16 20 20 18 16
21 16 19 20 19 17 24 14 14 17 21 19 16 16 16 14 15 14 12 12 16 18 16 16 16 14 7 7 10 10 16 19 16 19 23 25 33 35 34 33 32 29 28 24 22 21 21 19 19
17 20 18 18 17 17 20 18 18 18 20 22 20 18 16 14 14 15 19 14 14 15 18 16 17 18 19 19 13 6 11 14 16 20 22 19 29 36 38 36 33 32 30 29 22 24 22 23 19
17 18 12 16 15 16 19 20 19 17 17 26 20 16 16 16 15 13 14 16 15 14 13 16 15 17 18 19 19 20 16 10 13 17 20 27 26 30 38 46 41 32 30 27 27 23 23 23 24
20 14 5 9 16 16 18 19 3 15 16 25 25 18 13 13 12 12 9 11 14 15 13 13 13 14 16 17 17 18 18 18 16 18 21 23 27 31 25 27 16 5 22 22 24 23 27 25 25
10 13 14 6 19 16 19 18 1 6 2 12 14 19 13 13 9 11 10 10 11 13 14 13 12 12 13 13 14 16 16 17 17 20 20 20 23 28 23 5 22 34 41 32 26 26 30 28 28
10 8 8 3 3 6 13 10 7 20 9 18 12 5 11 11 10 7 13 7 11 9 15 14 12 11 13 13 15 13 12 14 16 18 22 23 24 27 28 25 21 36 54 49 33 29 31 31 31
10 6 3 3 5 4 7 4 13 21 16 15 18 4 5 4 6 9 8 9 8 9 11 12 11 9 11 11 13 14 17 18 17 18 20 23 25 22 27 20 17 28 53 46 34 33 30 36 29
2 4 1 4 2 3 2 2 4 11 14 14 13 15 17 10 6 9 8 5 7 7 9 9 10 11 11 10 11 13 13 17 17 20 23 25 27 25 20 21 23 16 18 30 32 42 30 32 32
Wind_Direction
274 280 271 280 257 232 262 271 100 112 88 83 52 48 63 44 30 72 142 151 131 134 147 148 152 157 156 158 160 156 150 145 139 135 131 130 130 129 126 122 118 111 106 104 95 86 82 78 73
272 284 263 282 265 283 1 301 89 51 23 101 86 52 53 58 67 110 144 147 130 137 137 147 153 158 159 160 164 162 155 152 146 142 138 137 138 137 133 126 122 117 112 108 101 93 85 78 74
274 273 277 231 248 257 245 265 73 161 161 102 109 86 44 53 31 137 131 133 129 138 139 149 154 160 160 163 166 166 161 156 153 150 146 143 143 142 139 130 126 124 120 112 106 100 89 80 79
259 222 244 256 267 277 306 219 25 118 136 124 91 92 91 18 109 134 142 137 138 144 148 153 156 160 164 166 169 168 166 164 162 157 152 149 148 147 143 138 132 133 131 125 117 107 98 88 85
244 273 254 268 269 267 192 101 356 305 131 144 104 123 97 94 100 125 142 141 148 146 150 157 159 163 168 170 173 171 173 171 168 165 157 155 152 151 148 144 140 147 144 140 134 128 119 99 87
240 244 264 264 261 247 170 44 321 296 308 111 138 120 105 136 129 140 150 150 148 136 142 160 162 164 168 174 176 174 178 177 175 170 164 161 156 156 154 157 158 159 147 160 177 170 173 149 92
255 265 264 276 289 299 185 98 299 273 282 277 127 92 113 140 138 148 152 159 143 133 143 155 160 165 167 172 178 179 179 184 180 176 171 167 163 162 163 166 168 167 169 189 220 212 214 216 224
245 262 277 285 280 289 79 76 287 311 297 86 27 95 352 126 152 154 156 161 140 140 145 155 159 162 166 170 178 182 183 188 187 184 178 176 174 177 176 178 179 186 194 197 215 223 228 231 240
246 260 262 265 265 279 162 152 262 288 310 44 76 126 178 223 172 166 161 165 153 151 147 161 163 166 166 170 176 183 188 189 189 190 188 184 181 189 197 195 210 202 202 207 214 233 235 241 247
231 250 251 259 277 334 78 63 304 176 256 265 145 142 172 169 178 173 166 164 160 162 156 163 168 172 171 172 180 184 190 190 193 196 201 190 188 207 201 214 211 227 224 215 220 230 238 247 239
229 244 266 274 338 321 336 353 306 281 277 234 209 155 149 157 172 181 175 171 172 173 159 166 177 174 178 176 181 179 192 188 200 199 213 197 208 197 190 206 222 233 229 236 231 233 232 239 242
238 252 259 274 303 302 286 287 280 284 269 6 21 130 141 162 170 199 186 181 160 164 168 164 175 174 187 174 176 180 190 191 201 201 213 219 227 205 198 212 218 215 213 221 229 237 235 240 247
244 252 265 270 267 280 281 273 275 288 269 279 115 139 200 159 164 213 199 151 140 149 166 173 170 172 191 163 179 183 198 195 199 202 206 212 224 217 207 226 217 216 210 210 215 232 253 247 275
254 246 255 269 259 263 254 263 262 261 266 275 220 168 149 158 169 202 249 139 147 150 157 168 164 177 193 209 187 188 200 205 200 199 202 211 217 225 211 227 235 247 237 245 225 238 236 257 267
272 270 271 265 262 257 256 255 249 256 246 257 178 253 270 158 170 181 198 116 142 148 157 180 173 179 188 212 223 206 212 217 204 213 210 206 208 231 216 220 222 228 237 237 252 255 250 236 259
266 266 264 259 242 233 246 259 247 235 225 258 213 199 244 169 180 186 165 170 159 144 158 171 182 180 185 198 212 216 219 217 218 212 217 206 202 216 230 220 227 228 230 229 234 251 242 248 266
255 255 256 257 247 230 212 248 257 261 225 242 200 233 219 213 160 50 47 94 151 165 157 169 186 183 188 196 206 214 221 228 229 232 221 216 211 216 228 224 233 224 223 229 240 240 253 248 258
258 246 246 245 274 188 233 248 243 268 259 201 230 203 241 212 90 72 50 94 58 162 166 177 191 204 192 192 205 214 223 229 220 226 229 216 215 211 221 224 232 231 214 232 238 241 249 258 280
263 276 292 293 299 258 233 235 264 241 265 178 179 216 246 87 95 78 54 39 49 52 172 171 192 206 207 191 190 213 227 220 228 224 235 217 216 208 215 225 229 220 211 226 240 238 239 253 257
275 284 283 276 282 285 275 248 249 249 224 209 223 209 214 106 93 78 68 71 63 71 67 230 228 216 215 217 217 211 215 225 221 222 225 224 213 211 216 216 226 219 218 227 235 242 243 256 252
277 265 274 278 287 274 256 263 253 267 174 170 122 166 179 165 110 97 85 92 94 83 78 80 274 263 238 224 233 236 246 246 235 222 219 219 211 213 214 222 224 232 218 223 229 226 227 247 257
272 283 250 264 267 270 272 249 245 244 183 187 175 152 162 125 125 123 116 111 97 94 77 76 57 340 292 264 240 248 234 235 247 246 227 215 212 211 215 219 223 223 224 220 233 216 224 228 242
275 269 284 280 279 249 259 270 254 252 190 185 183 179 172 163 147 138 128 106 109 99 81 71 55 50 43 348 275 290 271 268 270 260 246 230 214 214 212 217 217 221 218 217 213 206 212 218 225
263 260 262 278 265 263 248 251 263 254 211 176 179 174 156 150 143 135 132 118 92 91 94 70 60 48 42 43 38 342 318 312 304 301 293 271 211 211 211 208 214 217 214 216 218 214 212 211 216
264 276 257 251 243 247 249 251 249 344 300 165 168 149 169 154 145 148 140 121 107 89 76 80 61 50 44 39 34 29 15 343 314 297 294 287 288 225 216 203 199 209 212 210 213 212 210 209 214
289 298 332 296 288 277 260 260 306 17 10 152 151 148 171 162 134 120 97 103 99 94 77 66 64 60 42 40 33 29 24 10 356 340 326 312 289 295 294 7 28 18 254 226 218 212 211 210 211
309 269 308 325 283 296 287 286 110 159 70 123 169 159 150 108 104 118 87 74 80 89 81 65 49 42 47 37 26 24 16 11 2 349 341 339 327 329 326 227 162 195 259 243 220 208 214 211 204
254 352 318 286 0 247 252 305 3 5 273 139 135 154 128 126 133 93 98 48 63 50 77 63 40 28 43 27 15 7 358 355 351 351 346 343 340 337 325 320 252 235 236 248 218 214 216 210 205
301 278 340 287 286 303 333 42 353 1 344 8 2 81 75 115 70 112 91 91 48 35 43 52 34 16 38 23 6 354 356 354 353 349 341 337 335 344 344 350 328 254 217 228 230 213 214 210 204
287 293 81 268 233 163 138 291 33 37 358 19 17 337 336 14 52 60 84 68 60 38 32 31 20 3 16 11 356 349 353 344 340 332 327 325 330 335 345 351 341 326 248 224 248 242 216 208 207